• In Hungary
  • List of Countries
  • For 7 days
  • Water Temperature
  • Satellite Maps
  • Weather Map
  • News
  • Weather Widgets
  • user-avatar
    Login

    Hourly Weather Guzow

    Today, 20 June, Wednesday

    Time Temperature Precipitation Wind Pressure Humidity
    00:00 +18°C° 0 mm 2 mps 757 mmHg 85%
    01:00 +17°C° 0 mm 2 mps 757 mmHg 84%
    02:00 +17°C° 0 mm 2 mps 757 mmHg 85%
    03:00 +17°C° 0 mm 2 mps 757 mmHg 86%
    04:00 +16°C° 0 mm 2 mps 757 mmHg 87%
    05:00 +18°C° 0 mm 2 mps 757 mmHg 81%
    06:00 +20°C° 0 mm 2 mps 758 mmHg 76%
    07:00 +22°C° 0 mm 3 mps 758 mmHg 69%
    08:00 +24°C° 0 mm 3 mps 758 mmHg 64%
    09:00 +25°C° 0 mm 4 mps 758 mmHg 60%
    10:00 +26°C° 0 mm 4 mps 757 mmHg 56%
    11:00 +26°C° 0 mm 4 mps 757 mmHg 54%
    12:00 +27°C° 0 mm 4 mps 757 mmHg 52%
    13:00 +28°C° 0 mm 4 mps 757 mmHg 51%
    14:00 +28°C° 0 mm 4 mps 756 mmHg 52%
    15:00 +27°C° 0 mm 3 mps 756 mmHg 53%
    16:00 +27°C° 0 mm 3 mps 756 mmHg 53%
    17:00 +26°C° 0 mm 2 mps 756 mmHg 58%
    18:00 +25°C° 0 mm 2 mps 755 mmHg 62%
    19:00 +25°C° 0 mm 1 mps 755 mmHg 67%
    20:00 +24°C° 0 mm 2 mps 755 mmHg 69%
    21:00 +23°C° 0 mm 2 mps 755 mmHg 71%
    22:00 +21°C° 0 mm 2 mps 755 mmHg 73%
    23:00 +20°C° 0 mm 2 mps 755 mmHg 75%

    Tomorrow, 21 June, Thursday

    Time Temperature Precipitation Wind Pressure Humidity
    00:00 +20°C° 0 mm 2 mps 754 mmHg 77%
    01:00 +19°C° 0 mm 2 mps 754 mmHg 79%
    02:00 +19°C° 0 mm 2 mps 754 mmHg 80%
    03:00 +19°C° 0 mm 3 mps 753 mmHg 81%
    04:00 +18°C° 0 mm 3 mps 753 mmHg 82%
    05:00 +20°C° 0 mm 3 mps 752 mmHg 77%
    06:00 +22°C° 0 mm 4 mps 752 mmHg 72%
    07:00 +25°C° 0 mm 4 mps 752 mmHg 66%
    08:00 +26°C° 0.1 mm 4 mps 751 mmHg 62%
    09:00 +27°C° 0.1 mm 4 mps 750 mmHg 58%
    10:00 +29°C° 0.1 mm 5 mps 750 mmHg 54%
    11:00 +29°C° 0 mm 5 mps 749 mmHg 53%
    12:00 +30°C° 0 mm 5 mps 748 mmHg 51%
    13:00 +32°C° 0 mm 5 mps 747 mmHg 49%
    14:00 +30°C° 0 mm 5 mps 747 mmHg 51%
    15:00 +30°C° 0 mm 5 mps 746 mmHg 54%
    16:00 +30°C° 0 mm 5 mps 745 mmHg 56%
    17:00 +28°C° 0.4 mm 5 mps 745 mmHg 62%
    18:00 +26°C° 0.4 mm 5 mps 745 mmHg 68%
    19:00 +24°C° 0.4 mm 6 mps 745 mmHg 74%
    20:00 +21°C° 0.9 mm 6 mps 746 mmHg 77%
    21:00 +19°C° 0.9 mm 6 mps 746 mmHg 81%
    22:00 +15°C° 0.9 mm 6 mps 747 mmHg 85%
    23:00 +14°C° 0.1 mm 6 mps 748 mmHg 82%

    Day after tomorrow, 22 June, Friday

    Time Temperature Precipitation Wind Pressure Humidity
    00:00 +13°C° 0.1 mm 5 mps 748 mmHg 79%
    01:00 +12°C° 0.1 mm 5 mps 749 mmHg 77%
    02:00 +10°C° 0 mm 5 mps 749 mmHg 78%
    03:00 +9°C° 0 mm 5 mps 750 mmHg 79%
    04:00 +9°C° 0 mm 5 mps 750 mmHg 80%
    05:00 +10°C° 0 mm 6 mps 750 mmHg 75%
    06:00 +11°C° 0 mm 6 mps 750 mmHg 69%
    07:00 +12°C° 0 mm 7 mps 750 mmHg 63%
    08:00 +12°C° 0 mm 7 mps 750 mmHg 61%
    09:00 +13°C° 0 mm 8 mps 750 mmHg 59%
    10:00 +15°C° 0 mm 8 mps 750 mmHg 56%
    11:00 +15°C° 0 mm 8 mps 750 mmHg 56%
    12:00 +15°C° 0 mm 8 mps 750 mmHg 56%
    13:00 +15°C° 0 mm 7 mps 750 mmHg 56%
    14:00 +16°C° 0.2 mm 7 mps 750 mmHg 57%
    15:00 +16°C° 0.2 mm 6 mps 750 mmHg 57%
    16:00 +17°C° 0.2 mm 6 mps 750 mmHg 57%
    17:00 +16°C° 0.2 mm 5 mps 750 mmHg 63%
    18:00 +15°C° 0.2 mm 4 mps 751 mmHg 68%
    19:00 +14°C° 0.2 mm 3 mps 751 mmHg 74%
    20:00 +13°C° 0 mm 3 mps 751 mmHg 77%
    21:00 +12°C° 0 mm 3 mps 751 mmHg 81%
    22:00 +11°C° 0 mm 3 mps 751 mmHg 84%
    23:00 +11°C° 0 mm 3 mps 751 mmHg 85%

    23 June, Saturday

    Time Temperature Precipitation Wind Pressure Humidity
    00:00 +10°C° 0 mm 4 mps 751 mmHg 86%
    01:00 +10°C° 0 mm 4 mps 751 mmHg 87%
    02:00 +10°C° 0 mm 4 mps 751 mmHg 88%
    03:00 +10°C° 0 mm 4 mps 751 mmHg 88%
    04:00 +10°C° 0 mm 4 mps 751 mmHg 89%
    05:00 +10°C° 0 mm 5 mps 751 mmHg 84%
    06:00 +12°C° 0 mm 5 mps 751 mmHg 80%
    07:00 +13°C° 0 mm 6 mps 751 mmHg 76%
    08:00 +12°C° 0.2 mm 7 mps 751 mmHg 74%
    09:00 +14°C° 0.2 mm 7 mps 751 mmHg 72%
    10:00 +14°C° 0.2 mm 7 mps 751 mmHg 70%
    11:00 +14°C° 0.3 mm 7 mps 751 mmHg 69%
    12:00 +13°C° 0.3 mm 8 mps 751 mmHg 68%
    13:00 +15°C° 0.3 mm 8 mps 751 mmHg 66%
    14:00 +15°C° 0.2 mm 8 mps 751 mmHg 65%
    15:00 +16°C° 0.2 mm 7 mps 751 mmHg 63%
    16:00 +16°C° 0.2 mm 7 mps 752 mmHg 61%
    17:00 +15°C° 0.2 mm 6 mps 752 mmHg 65%
    18:00 +15°C° 0.2 mm 5 mps 752 mmHg 69%
    19:00 +14°C° 0.2 mm 4 mps 752 mmHg 73%
    20:00 +13°C° 0 mm 4 mps 753 mmHg 77%
    21:00 +12°C° 0 mm 4 mps 753 mmHg 80%
    22:00 +11°C° 0 mm 4 mps 753 mmHg 84%
    23:00 +11°C° 0 mm 3 mps 753 mmHg 86%

    24 June, Sunday

    Time Temperature Precipitation Wind Pressure Humidity
    00:00 +10°C° 0 mm 3 mps 754 mmHg 88%
    01:00 +10°C° 0 mm 3 mps 754 mmHg 90%
    02:00 +10°C° 0 mm 3 mps 754 mmHg 92%
    03:00 +9°C° 0 mm 3 mps 754 mmHg 93%
    04:00 +9°C° 0 mm 3 mps 754 mmHg 95%
    05:00 +11°C° 0 mm 3 mps 754 mmHg 88%
    06:00 +12°C° 0 mm 4 mps 754 mmHg 82%
    07:00 +14°C° 0 mm 4 mps 754 mmHg 76%
    08:00 +15°C° 0 mm 5 mps 754 mmHg 70%
    09:00 +17°C° 0 mm 5 mps 755 mmHg 64%
    10:00 +19°C° 0 mm 5 mps 755 mmHg 58%
    11:00 +20°C° 0.1 mm 5 mps 755 mmHg 57%
    12:00 +20°C° 0.1 mm 5 mps 755 mmHg 56%
    13:00 +21°C° 0.1 mm 5 mps 755 mmHg 55%
    14:00 +21°C° 0.2 mm 4 mps 755 mmHg 55%
    15:00 +21°C° 0.2 mm 4 mps 755 mmHg 56%
    16:00 +21°C° 0.2 mm 4 mps 755 mmHg 56%
    17:00 +20°C° 0.1 mm 3 mps 755 mmHg 62%
    18:00 +19°C° 0.1 mm 3 mps 755 mmHg 67%
    19:00 +18°C° 0.1 mm 2 mps 755 mmHg 73%
    20:00 +17°C° 0 mm 2 mps 755 mmHg 76%
    21:00 +16°C° 0 mm 2 mps 756 mmHg 79%
    22:00 +15°C° 0 mm 2 mps 756 mmHg 83%
    23:00 +15°C° 0 mm 2 mps 756 mmHg 85%

    25 June, Monday

    Time Temperature Precipitation Wind Pressure Humidity
    00:00 +14°C° 0 mm 2 mps 756 mmHg 87%
    01:00 +14°C° 0 mm 2 mps 756 mmHg 89%
    02:00 +14°C° 0 mm 2 mps 756 mmHg 90%
    03:00 +13°C° 0 mm 2 mps 756 mmHg 91%
    04:00 +13°C° 0 mm 2 mps 757 mmHg 92%
    05:00 +15°C° 0 mm 2 mps 757 mmHg 86%
    06:00 +16°C° 0 mm 2 mps 757 mmHg 81%
    07:00 +18°C° 0 mm 2 mps 757 mmHg 76%
    08:00 +19°C° 0.3 mm 3 mps 757 mmHg 71%
    09:00 +20°C° 0.3 mm 3 mps 757 mmHg 67%
    10:00 +21°C° 0.3 mm 3 mps 757 mmHg 63%
    11:00 +21°C° 0.3 mm 3 mps 757 mmHg 60%
    12:00 +22°C° 0.3 mm 3 mps 756 mmHg 57%
    13:00 +23°C° 0.3 mm 4 mps 756 mmHg 54%
    14:00 +23°C° 0.2 mm 4 mps 756 mmHg 55%
    15:00 +22°C° 0.2 mm 4 mps 756 mmHg 56%
    16:00 +22°C° 0.2 mm 4 mps 756 mmHg 56%
    17:00 +22°C° 0 mm 3 mps 756 mmHg 60%
    18:00 +21°C° 0 mm 2 mps 756 mmHg 64%
    19:00 +20°C° 0 mm 2 mps 756 mmHg 68%
    20:00 +19°C° 0 mm 2 mps 757 mmHg 72%
    21:00 +18°C° 0 mm 2 mps 757 mmHg 75%
    22:00 +17°C° 0 mm 2 mps 757 mmHg 79%
    23:00 +16°C° 0 mm 2 mps 757 mmHg 84%
    Show more